N70VB PAKN-PADL

Flight info

Callsign N70VB
Flight time 0h 28m
Altitude 8000
Route KIYGE FISAX/N0208F070
Aircraft AEST/L-SDFGRY/S

Departure

Time 2026-04-23 14:13
Airport King Salmon Airport (PAKN)

Arrival

Time 2026-04-23 14:41
Airport Dillingham Airport (PADL)
Time Latitude Longitude Altitude Speed Heading
2026-04-23 13:54 58.67347 -156.65123 67 ft 0 kts 74°
2026-04-23 14:04 58.67347 -156.65125 67 ft 1 kts 74°
2026-04-23 14:04 58.67345 -156.65136 67 ft 3 kts 70°
2026-04-23 14:04 58.67367 -156.65222 63 ft 14 kts 270°
2026-04-23 14:04 58.67373 -156.65241 66 ft 0 kts 340°
2026-04-23 14:05 58.67416 -156.65191 64 ft 15 kts 28°
2026-04-23 14:05 58.67536 -156.65202 67 ft 22 kts 311°
2026-04-23 14:05 58.67637 -156.65281 67 ft 23 kts 18°
2026-04-23 14:06 58.67825 -156.65182 66 ft 32 kts 15°
2026-04-23 14:06 58.68053 -156.65041 66 ft 38 kts 17°
2026-04-23 14:06 58.68283 -156.64915 64 ft 33 kts 16°
2026-04-23 14:06 58.68439 -156.64833 68 ft 7 kts 331°
2026-04-23 14:07 58.68427 -156.64852 66 ft 9 kts 153°
2026-04-23 14:07 58.68394 -156.64852 67 ft 0 kts 196°
2026-04-23 14:12 58.68393 -156.64852 69 ft 1 kts 196°
2026-04-23 14:12 58.68131 -156.64994 64 ft 81 kts 195°
2026-04-23 14:12 58.67555 -156.65454 418 ft 95 kts 202°
2026-04-23 14:13 58.66962 -156.66303 732 ft 129 kts 227°
2026-04-23 14:13 58.66727 -156.67458 852 ft 152 kts 256°
2026-04-23 14:13 58.67144 -156.70293 1147 ft 190 kts 299°
2026-04-23 14:13 58.67901 -156.72508 1538 ft 203 kts 292°
2026-04-23 14:14 58.68246 -156.74171 1834 ft 198 kts 277°
2026-04-23 14:14 58.68464 -156.76680 2226 ft 184 kts 266°
2026-04-23 14:14 58.68577 -156.79099 2541 ft 179 kts 265°
2026-04-23 14:14 58.68704 -156.81462 2830 ft 177 kts 265°
2026-04-23 14:15 58.68847 -156.83800 3120 ft 176 kts 266°
2026-04-23 14:15 58.68993 -156.86128 3372 ft 175 kts 265°
2026-04-23 14:15 58.69136 -156.88444 3605 ft 174 kts 266°
2026-04-23 14:15 58.69280 -156.90756 3829 ft 174 kts 266°
2026-04-23 14:16 58.69422 -156.93060 4037 ft 173 kts 266°
2026-04-23 14:16 58.69563 -156.95333 4241 ft 173 kts 266°
2026-04-23 14:16 58.69705 -156.97631 4446 ft 173 kts 266°
2026-04-23 14:16 58.69846 -156.99909 4717 ft 168 kts 267°
2026-04-23 14:17 58.69981 -157.02076 5062 ft 160 kts 266°
2026-04-23 14:17 58.70111 -157.04170 5422 ft 154 kts 266°
2026-04-23 14:17 58.70235 -157.06189 5769 ft 150 kts 265°
2026-04-23 14:17 58.70354 -157.08171 6092 ft 148 kts 265°
2026-04-23 14:18 58.70472 -157.10129 6401 ft 147 kts 265°
2026-04-23 14:18 58.70590 -157.12076 6690 ft 146 kts 265°
2026-04-23 14:18 58.70708 -157.14010 6983 ft 144 kts 265°
2026-04-23 14:18 58.70823 -157.15866 7369 ft 136 kts 264°
2026-04-23 14:19 58.70928 -157.17612 7718 ft 131 kts 263°
2026-04-23 14:19 58.71030 -157.19334 8044 ft 128 kts 263°
2026-04-23 14:19 58.71129 -157.21035 8358 ft 128 kts 263°
2026-04-23 14:19 58.71229 -157.22736 8668 ft 128 kts 263°
2026-04-23 14:20 58.71331 -157.24429 8980 ft 127 kts 262°
2026-04-23 14:20 58.71431 -157.26113 9280 ft 127 kts 262°
2026-04-23 14:20 58.71530 -157.27797 9570 ft 128 kts 262°
2026-04-23 14:20 58.71630 -157.29636 9569 ft 152 kts 264°
2026-04-23 14:21 58.71755 -157.31832 9499 ft 176 kts 266°
2026-04-23 14:21 58.71907 -157.34255 9487 ft 187 kts 267°
2026-04-23 14:21 58.72068 -157.36754 9484 ft 189 kts 267°
2026-04-23 14:21 58.72212 -157.39271 9484 ft 190 kts 266°
2026-04-23 14:22 58.72355 -157.41772 9485 ft 191 kts 267°
2026-04-23 14:22 58.72504 -157.44315 9483 ft 192 kts 267°
2026-04-23 14:22 58.72652 -157.46871 9481 ft 192 kts 267°
2026-04-23 14:22 58.72801 -157.49432 9481 ft 192 kts 267°
2026-04-23 14:23 58.72947 -157.51990 9478 ft 193 kts 267°
2026-04-23 14:23 58.73191 -157.54519 9438 ft 193 kts 284°
2026-04-23 14:23 58.73926 -157.56729 9469 ft 202 kts 297°
2026-04-23 14:23 58.74785 -157.58915 9476 ft 206 kts 299°
2026-04-23 14:24 58.75662 -157.61107 9472 ft 208 kts 299°
2026-04-23 14:24 58.76544 -157.63329 9464 ft 209 kts 299°
2026-04-23 14:24 58.77425 -157.65566 9464 ft 210 kts 299°
2026-04-23 14:24 58.78310 -157.67816 9460 ft 210 kts 299°
2026-04-23 14:25 58.79184 -157.70044 9448 ft 211 kts 298°
2026-04-23 14:25 58.80068 -157.72301 9454 ft 211 kts 298°
2026-04-23 14:25 58.80951 -157.74556 9448 ft 211 kts 298°
2026-04-23 14:25 58.81837 -157.76819 9450 ft 211 kts 298°
2026-04-23 14:26 58.82721 -157.79078 9448 ft 211 kts 298°
2026-04-23 14:26 58.83605 -157.81347 9452 ft 211 kts 298°
2026-04-23 14:26 58.84490 -157.83616 9452 ft 212 kts 298°
2026-04-23 14:26 58.85374 -157.85884 9453 ft 211 kts 298°
2026-04-23 14:27 58.86261 -157.88161 9449 ft 211 kts 298°
2026-04-23 14:27 58.87148 -157.90438 9450 ft 212 kts 298°
2026-04-23 14:27 58.88031 -157.92717 9443 ft 212 kts 298°
2026-04-23 14:27 58.88916 -157.94994 9447 ft 212 kts 298°
2026-04-23 14:28 58.89799 -157.97269 9450 ft 212 kts 298°
2026-04-23 14:28 58.90689 -157.99543 9428 ft 212 kts 302°
2026-04-23 14:28 58.91852 -158.01212 9380 ft 217 kts 330°
2026-04-23 14:28 58.93399 -158.01782 8991 ft 236 kts
2026-04-23 14:29 58.95037 -158.01293 8814 ft 240 kts 12°
2026-04-23 14:29 58.96697 -158.00784 8603 ft 243 kts
2026-04-23 14:29 58.98389 -158.00486 8393 ft 245 kts
2026-04-23 14:29 59.00095 -158.00407 8176 ft 246 kts 358°
2026-04-23 14:30 59.01804 -158.00544 7930 ft 246 kts 354°
2026-04-23 14:30 59.03511 -158.00896 7656 ft 247 kts 350°
2026-04-23 14:30 59.05205 -158.01451 7365 ft 247 kts 346°
2026-04-23 14:30 59.06875 -158.02212 7051 ft 245 kts 342°
2026-04-23 14:31 59.08502 -158.03161 6755 ft 242 kts 338°
2026-04-23 14:31 59.10070 -158.04283 6463 ft 238 kts 334°
2026-04-23 14:31 59.11580 -158.05564 6150 ft 235 kts 330°
2026-04-23 14:31 59.13008 -158.06974 5829 ft 231 kts 327°
2026-04-23 14:32 59.14390 -158.08541 5483 ft 228 kts 323°
2026-04-23 14:32 59.15702 -158.10234 5093 ft 224 kts 320°
2026-04-23 14:32 59.17000 -158.12122 4742 ft 239 kts 317°
2026-04-23 14:32 59.18296 -158.14232 4480 ft 246 kts 314°
2026-04-23 14:33 59.19546 -158.16534 4223 ft 249 kts 310°
2026-04-23 14:33 59.20724 -158.18989 4131 ft 244 kts 305°
2026-04-23 14:33 59.21785 -158.21497 4179 ft 237 kts 302°
2026-04-23 14:33 59.22750 -158.24072 4190 ft 233 kts 298°
2026-04-23 14:34 59.23762 -158.26505 4211 ft 230 kts 313°
2026-04-23 14:34 59.24762 -158.28893 4232 ft 230 kts 289°
2026-04-23 14:34 59.25097 -158.31886 4122 ft 226 kts 262°
2026-04-23 14:34 59.24693 -158.34761 4008 ft 216 kts 234°
2026-04-23 14:35 59.23703 -158.36831 3942 ft 206 kts 208°
2026-04-23 14:35 59.22373 -158.37708 3767 ft 203 kts 183°
2026-04-23 14:35 59.20952 -158.37312 3355 ft 210 kts 165°
2026-04-23 14:35 59.19545 -158.36481 2965 ft 212 kts 172°
2026-04-23 14:36 59.18084 -158.36710 2470 ft 214 kts 198°
2026-04-23 14:36 59.16833 -158.38330 1975 ft 219 kts 220°
2026-04-23 14:36 59.15713 -158.39982 1922 ft 188 kts 197°
2026-04-23 14:36 59.14588 -158.40764 1958 ft 158 kts 198°
2026-04-23 14:37 59.13685 -158.41609 1975 ft 127 kts 199°
2026-04-23 14:37 59.13025 -158.42271 1958 ft 89 kts 197°
2026-04-23 14:37 59.12547 -158.42760 1964 ft 70 kts 194°
2026-04-23 14:37 59.12157 -158.43154 1908 ft 63 kts 195°
2026-04-23 14:38 59.11767 -158.43604 1766 ft 66 kts 196°
2026-04-23 14:38 59.11359 -158.44063 1674 ft 71 kts 193°
2026-04-23 14:38 59.10890 -158.44436 1619 ft 72 kts 187°
2026-04-23 14:38 59.10414 -158.44808 1537 ft 75 kts 198°
2026-04-23 14:39 59.09932 -158.45350 1427 ft 81 kts 201°
2026-04-23 14:39 59.09435 -158.45837 1359 ft 81 kts 194°
2026-04-23 14:39 59.08906 -158.46255 1245 ft 85 kts 193°
2026-04-23 14:39 59.08342 -158.46765 1060 ft 94 kts 199°
2026-04-23 14:40 59.07745 -158.47384 862 ft 99 kts 202°
2026-04-23 14:40 59.07131 -158.47976 640 ft 98 kts 204°
2026-04-23 14:40 59.06525 -158.48549 462 ft 98 kts 204°
2026-04-23 14:40 59.05912 -158.49165 286 ft 100 kts 197°
2026-04-23 14:41 59.05295 -158.49752 124 ft 96 kts 202°
2026-04-23 14:41 59.04781 -158.50255 73 ft 59 kts 201°
2026-04-23 14:41 59.04510 -158.50511 70 ft 35 kts 206°
2026-04-23 14:41 59.04336 -158.50692 75 ft 19 kts 225°
2026-04-23 14:42 59.04343 -158.50928 75 ft 18 kts 285°
2026-04-23 14:42 59.04303 -158.51052 73 ft 10 kts 201°
2026-04-23 14:42 59.04228 -158.51115 76 ft 12 kts 207°
2026-04-23 14:42 59.04241 -158.51245 74 ft 9 kts 295°
2026-04-23 14:43 59.04243 -158.51252 76 ft 0 kts 295°